Weather History for Quincy, IL

Change the Weather History Date:

Saturday, June 29, 2013

  Actual Average Record
Temperature  
Mean Temperature 71 °F 75 °F  
Max Temperature 79 °F 85 °F 103 °F (2012)
Min Temperature 63 °F 66 °F 52 °F (1950)
Degree Days  
Heating Degree Days 0 0  
Month to date heating degree days 12 14  
Since 1 June heating degree days 12 14  
Since 1 July heating degree days 5638 5580  
Cooling Degree Days 6 10  
Month to date cooling degree days 253 218  
Year to date cooling degree days 365 304  
Since 1 June cooling degree days 253 218  
Growing Degree Days 20 (Base 50)    
Moisture  
Dew Point 61 °F    
Average Humidity 74    
Maximum Humidity 93    
Minimum Humidity 54    
Precipitation  
Precipitation 0.16 in 0.12 in 2.12 in (1933)
Month to date precipitation 1.61 3.87  
Year to date precipitation 26.85 17.96  
Sea Level Pressure  
Sea Level Pressure 29.72 in    
Wind  
Wind Speed 12 mph (NNW)    
Max Wind Speed 33 mph    
Max Gust Speed 40 mph    
Visibility 10 miles    
Events Rain , Thunderstorm    
T = Trace of Precipitation, MM = Missing Value Source: NWS Daily Summary

Daily Weather History Graph

Daily Weather History Graph

Search for Another Location

Airport:

Trip Planner

Search our weather history database for the weather conditions in past years. The results will help you decide how hot, cold, wet, or windy it might be!

Date:

Astronomy

Jun. 29, 2013 Rise Set
Actual Time 5:39 AM CDT 8:37 PM CDT
Civil Twilight 5:06 AM CDT 9:10 PM CDT
Nautical Twilight 4:24 AM CDT 9:51 PM CDT
Astronomical Twilight 3:36 AM CDT 10:39 PM CDT
Moon 12:06 AM CDT (6/29) 12:50 PM CDT (6/29)
Length of Visible Light 16h 03m
Length of Day
14h 58m
Waning Gibbous, 55% of the Moon is Illuminated
Jun 29
Waning Gibbous
Jun 29
Last Quarter
Jul 8
New
Jul 15
First Quarter
Jul 22
Full

Hourly Weather History & Observations

Time (CDT) Temp. Dew Point Humidity Pressure Visibility Wind Dir Wind Speed Gust Speed Precip Events Conditions
12:54 AM 70.0 °F 57.0 °F 63% 29.70 in 10.0 mi WNW 5.8 mph - N/A   Clear
1:54 AM 69.1 °F 57.9 °F 68% 29.70 in 10.0 mi WNW 6.9 mph - N/A   Clear
2:54 AM 66.9 °F 57.9 °F 73% 29.69 in 10.0 mi WNW 6.9 mph - N/A   Clear
3:54 AM 66.9 °F 57.9 °F 73% 29.68 in 10.0 mi West 5.8 mph - N/A   Clear
4:54 AM 66.9 °F 57.9 °F 73% 29.70 in 10.0 mi WNW 9.2 mph - N/A   Clear
5:54 AM 66.9 °F 57.9 °F 73% 29.70 in 10.0 mi WNW 9.2 mph - N/A   Clear
6:54 AM 68.0 °F 59.0 °F 73% 29.70 in 10.0 mi WNW 10.4 mph - N/A   Clear
7:54 AM 70.0 °F 60.1 °F 71% 29.71 in 10.0 mi NW 17.3 mph - N/A   Clear
8:54 AM 72.0 °F 61.0 °F 68% 29.70 in 10.0 mi NW 18.4 mph - N/A   Partly Cloudy
9:28 AM 71.6 °F 60.8 °F 69% 29.71 in 10.0 mi NW 16.1 mph 24.2 mph N/A   Mostly Cloudy
9:54 AM 73.0 °F 61.0 °F 66% 29.69 in 10.0 mi NW 16.1 mph - N/A   Mostly Cloudy
10:36 AM 75.2 °F 62.6 °F 65% 29.71 in 10.0 mi NW 13.8 mph - N/A   Overcast
10:54 AM 72.0 °F 61.0 °F 68% 29.70 in 10.0 mi NW 13.8 mph - 0.00 in Rain Light Rain
11:01 AM 71.6 °F 60.8 °F 69% 29.71 in 10.0 mi NW 13.8 mph 21.9 mph 0.00 in   Overcast
11:54 AM 75.9 °F 60.1 °F 58% 29.69 in 10.0 mi NNW 16.1 mph 26.5 mph 0.00 in   Mostly Cloudy
12:54 PM 78.1 °F 60.1 °F 54% 29.68 in 10.0 mi NW 17.3 mph 23.0 mph N/A   Scattered Clouds
1:34 PM 73.4 °F 60.8 °F 65% 29.70 in 10.0 mi NNE 18.4 mph 26.5 mph N/A Thunderstorm Thunderstorm
1:43 PM 71.6 °F 62.6 °F 73% 29.70 in 10.0 mi North 12.7 mph - N/A   Scattered Clouds
1:54 PM 72.0 °F 62.1 °F 71% 29.68 in 10.0 mi North 11.5 mph - N/A   Partly Cloudy
2:54 PM 73.9 °F 61.0 °F 64% 29.70 in 10.0 mi NNW 33.4 mph 40.3 mph N/A Thunderstorm Squalls
3:06 PM 64.4 °F 60.8 °F 88% 29.73 in 1.8 mi North 20.7 mph - 0.09 in Rain , Thunderstorm Heavy Thunderstorms and Rain
3:16 PM 64.4 °F 60.8 °F 88% 29.73 in 3.0 mi North 12.7 mph - 0.13 in Rain , Thunderstorm Thunderstorms and Rain
3:39 PM 64.4 °F 60.8 °F 88% 29.73 in 9.0 mi North 9.2 mph - 0.15 in Rain Light Rain
3:54 PM 64.9 °F 61.0 °F 87% 29.71 in 10.0 mi NNW 8.1 mph - 0.15 in   Mostly Cloudy
4:54 PM 69.1 °F 62.1 °F 78% 29.71 in 10.0 mi NNW 9.2 mph - N/A   Partly Cloudy
5:54 PM 68.0 °F 63.0 °F 84% 29.70 in 10.0 mi North 12.7 mph - 0.00 in Rain Light Rain
6:54 PM 70.0 °F 61.0 °F 73% 29.72 in 10.0 mi North 12.7 mph - 0.00 in   Clear
7:54 PM 68.0 °F 62.1 °F 81% 29.74 in 10.0 mi NW 8.1 mph - N/A   Clear
8:54 PM 66.9 °F 63.0 °F 87% 29.75 in 10.0 mi NNW 13.8 mph - 0.00 in Rain Light Rain
9:09 PM 66.2 °F 62.6 °F 88% 29.77 in 10.0 mi North 10.4 mph - 0.00 in Rain Light Rain
9:17 PM 64.4 °F 62.6 °F 94% 29.78 in 10.0 mi North 11.5 mph - 0.00 in   Scattered Clouds
9:54 PM 64.0 °F 61.0 °F 90% 29.77 in 10.0 mi NNW 8.1 mph - 0.00 in   Clear
10:54 PM 63.0 °F 61.0 °F 93% 29.78 in 10.0 mi North 10.4 mph - N/A   Partly Cloudy
11:54 PM 63.0 °F 61.0 °F 93% 29.79 in 9.0 mi North 9.2 mph - 0.01 in   Clear